Regional Weather Roundup
Issued by NWS Wakefield, VA

Home | Current Version | Previous Version | Text Only | Print | Product List | Glossary Off
Versions: 1 2 3 4 5 6 7 8 9 10 11 12 13 14 15 16 17 18 19 20 21 22 23 24 25 26 27 28 29 30 31 32 33 34 35 36 37 38 39 40 41 42 43 44 45 46 47 48 49 50

000
ASUS41 KAKQ 171415
RWRAKQ

REGIONAL WEATHER ROUNDUP
NATIONAL WEATHER SERVICE WAKEFIELD VA
900 AM EST WED JAN 17 2018

Note: "fair" indicates few or no clouds below 12,000 feet with no
significant weather and/or obstructions to visibility. * = Denotes
station may not report precipitation (e.g., rain,snow,etc.),
thunder or fog.

VAZ042-051-052>054-056-171500-
NORTHERN VIRGINIA

CITY           SKY/WX    TMP DP  RH WIND       PRES   REMARKS
WASH NATIONAL  CLOUDY    25  16  68 NW16      30.41R WCI  12
DULLES         CLOUDY    22  12  65 N15       30.41R WCI   9
FORT BELVOIR   PTSUNNY   24  11  55 NW15G23   30.40R WCI  12
QUANTICO       CLOUDY    27  18  69 N12       30.42R WCI  16
FREDERICKSBRG* LGT SNOW  27  23  84 N8        30.39R
STAFFORD*      CLOUDY    26  19  73 N8        30.43R
WARRENTON      CLOUDY    26   9  49 N15       30.40R WCI  13
CULPEPER*      CLOUDY    26  10  52 N13       30.40R WCI  15
MANASSAS*      CLOUDY    24  16  71 N14G20    30.42R WCI  12
LEESBURG*      CLOUDY    23  14  68 N14G20    30.42R WCI  11
WINCHESTER     PTSUNNY   18   9  68 NW10G16   30.43R WCI   6
FRONT ROYAL*   CLOUDY    21  10  63 NE6       30.39S
LURAY*         CLOUDY    27  12  54 N9        30.38S
$$

VAZ048-049-060>072-079>083-171500-
CENTRAL AND SOUTH CENTRAL VIRGINIA

CITY           SKY/WX    TMP DP  RH WIND       PRES   REMARKS
RICHMOND       LGT SNOW  31  29  92 N13       30.34R VSB 3/4 WCI  21
CHESTERFIELD*  NOT AVBL
PETERSBURG*    LGT SNOW  30  28  93 N9        30.33S
HANOVER        LGT SNOW  29  26  89 VRB6      30.36R VSB 3/4
TAPPAHANNOCK*  LGT SNOW  30  27  90 N12G18    30.36R WCI  20
QUINTON*       CLOUDY    30  29  96 N9G16     30.34R FOG
CHARLOTTSVILLE LGT SNOW  29  25  85 N6        30.34R FOG
GORDONSVILLE*  CLOUDY    25  23  91 NE8       30.36R FOG
ORANGE*        LGT SNOW  25  21  86 CALM      30.37R
LOUISA*        LGT SNOW  25  22  89 N10       30.40R FOG     WCI  15
BUMPASS*       CLOUDY    26  23  89 N7        30.36R
FARMVILLE*     LGT SNOW N/A N/A N/A NE9       30.31S VSB 3/4
CREWE*         CLOUDY    30  30 100 CALM      30.32R VSB 1/2
FORT PICKETT*  CLOUDY    31  31 100 N13       30.30S VSB 1/2 WCI  21
CHASE CITY*    CLOUDY    31  31 100 N5        30.29S VSB 1/2
CLARKSVILLE*   CLOUDY    32  32 100 N5        30.29R VSB 1/2
SOUTH HILL*    CLOUDY    32  32 100 N8        30.34S VSB 3/4
LAWRENCEVILLE* CLOUDY    32  31  96 CALM      30.29S VSB 3/4
EMPORIA*       CLOUDY    32  28  86 N6        30.32R
$$

VAZ088>098-171500-
SOUTHEAST VIRGINIA

CITY           SKY/WX    TMP DP  RH WIND       PRES   REMARKS
NORFOLK        PTSUNNY   35  32  88 N10       30.32R
VIRGINIA BEACH PTSUNNY   36  30  79 N10       30.32R FOG
NORFOLK NAVAL  CLOUDY    35  30  82 N10       30.34R
WEST POINT*    CLOUDY    32  28  87 N7        30.36R
SALUDA*        CLOUDY    32  30  94 N9G16     30.33R
NEWPORT NEWS   CLOUDY    34  30  85 N7        30.33R
LANGLEY AFB    CLOUDY    34  31  91 N12       30.32R
FORT EUSTIS    CLOUDY    34  29  84 N6        30.31R
WILLIAMSBURG*  FAIR      36  30  80 CALM      30.33S
HR EXEC AP*    FAIR      33  31  92 N6        30.33R
FRANKLIN*      FAIR      33  30  91 NE6       30.32S
US460-WAKEFLD  CLOUDY    34  30  85 N6        30.32R
$$

VAZ020-022-025-037-045-171500-
WEST CENTRAL AND SOUTHWEST VIRGINIA

CITY           SKY/WX    TMP DP  RH WIND       PRES   REMARKS
STAUNTON*      FLURRIES  22  16  78 NE9       30.36S
WAYNESBORO*    CLOUDY    21  19  90 N12G20    30.32R WCI   9
HOT SPRINGS VA CLOUDY    11   7  86 NW6       30.14S
LYNCHBURG      LGT SNOW  27  25  92 N8        30.30S FOG
DANVILLE       LGT SNOW  28  28 100 NW8       30.30S VSB 1
SOUTH BOSTON*  CLOUDY    31  30  95 N5        30.31R VSB 1/2
MARTINSVILLE   LGT SNOW  24  20  87 N6        30.33R VSB 1
ROANOKE        LGT SNOW  22  18  85 N9        30.34S VSB 3/4
BLACKSBURG     LGT SNOW  16  13  88 CALM      30.30S
DUBLIN*        LGT SNOW  17  11  78 NW9       30.30R
MARION*        FLURRIES  16   8  72 NW7       30.28R
HILLSVILLE*    FLURRIES  15  13  90 N10       30.20S WCI   2
RICHLANDS*     LGT SNOW   7   4  89 N5        30.28F
WISE*          LGT SNOW   5   3  92 N5        30.30S
ABINGDON*      FLURRIES  14   9  79 N5        30.30S
$$

MDZ021>025-VAZ099-100-171500-
SOUTHERN MARYLAND AND THE DELMARVA PENINSULA

CITY           SKY/WX    TMP DP  RH WIND       PRES   REMARKS
PATUXENT RIVER NOT AVBL
BAY BRIDGE APT LGT SNOW  27  25  93 MISG      30.38R FOG
LEONARDTOWN    CLOUDY    28  23  80 NW12G18   30.38R WCI  18
DOVER          LGT SNOW  30  30 100 NW14      30.32R FOG     WCI  20
GEORGETOWN     CLOUDY    34  29  82 NW8       30.31S HAZE
EASTON         LGT SNOW  30  28  93 NW17G24   30.39R WCI  18
CAMBRIDGE      PTSUNNY   30  28  93 NW15G22   30.35R FOG     WCI  19
SALISBURY      CLOUDY    34  31  88 NW13      30.31R FOG     WCI  25
OCEAN CITY     CLOUDY    35  32  88 NW13      30.29S FOG
WALLOPS ISLAND CLOUDY    36  31  82 NW7G17    30.31R HAZE
ACCOMACK*      CLOUDY    33  31  94 NW7G17    30.31R FOG
$$

NCZ012>017-030>032-171500-
NORTH CENTRAL AND EASTERN NORTH CAROLINA

CITY           SKY/WX    TMP DP  RH WIND       PRES   REMARKS
ROANOKE RAPIDS PTSUNNY   36  28  75 NE6       30.30R
RALEIGH        LGT SNOW  33  31  92 N5        30.28R FOG
ELIZABETH CITY FAIR      38  38 100 N10       30.30R
AHOSKIE*       CLOUDY    33  30  89 N8        30.31S
EDENTON*       NOT AVBL
CURRITUCK*     FAIR      35  33  95 N10       30.31R
KILL DEVIL HLS FAIR     N/A N/A N/A CALM      30.26F HAZE
MANTEO         FAIR      37  35  92 NE5       30.28F
CAPE HATTERAS  LGT RAIN  41  38  89 VRB5      30.27S
TARBORO*       NOT AVBL
GOLDSBORO      CLOUDY    37  27  67 CALM      30.25S
WASHINGTON     FAIR      36  33  90 CALM      30.28R
GREENVILLE     FAIR      37  32  81 N3        30.28S
NEW BERN       FAIR      32  31  96 CALM      30.28F
WILMINGTON     FAIR      39  35  86 CALM      30.25S
$$

VAZ048-171500-
ELSEWHERE

CITY           SKY/WX    TMP DP  RH WIND       PRES   REMARKS
HARRISBURG PA  CLOUDY    19   9  65 NW21      30.39R WCI   3
BALTIMORE      FLURRIES  24  18  77 NW12      30.37S WCI  13
ANNAPOLIS      LGT SNOW  28  23  81 NW12      30.37R WCI  18
ANDREWS AFB    FAIR      24  15  67 N17       30.37R WCI  11
PHILADELPHIA   LGT SNOW  31  27  85 NW13      30.33R FOG     WCI  21
HENDERSON NC   LGT SNOW  29  28  96 N6        30.28S VSB 1
GREENSBORO     SNOW      27  26  96 N9G16     30.26S VSB 1/2
ROCKY MOUNT    CLOUDY    36  30  79 CALM      30.28F
$$

VAZ100-171500-
MARINE

STATION/POSITION TIME  TEMP    WIND        PRES    WAVE   SWELL
                       AIR SEA DIR/SP/G            HT/PER HT/PER
                 (UTC) (F)     (DEG/KT/KT) (MB)    (FT/S) (FT/S)
BRANDYWINE LGT   1336   32     330/ 11/ 15 1026.4S
CAPE MAY NJ      1336   32 34  330/ 14/ 17 1025.5S
LEWES DE         1336   33 35  320/ 13/ 15 1026.0S
15NM E FENWICK I 1350   36 44  320/ 21/ 25 1025.2R   6/10   3/10
OCEAN-CITY-INLET 1336   35 35  350/ 13/ 15 1025.9F
WACHAPREAGUE VA  1336   33 35  320/  8/ 12 1026.1S
THOMAS POINT MD  1400   26 32  320/ 16/ 20   N/A
GOOSES REEF MD   1400   28 33  320/ 17/ 19 1028.8    2/ 3
COVE POINT MD    1336   28     340/ 20/ 23 1028.5R
SOLOMONS ISLAND  1336   28 34  320/ 13/ 18 1027.6R
BISHOPS HEAD MD  1336   31 32  330/ 12/ 16 1027.5R
PINEY POINT MD   1348          350/ 21/ 25   N/A
POTOMAC MD       1400   30 34   30/ 14/ 17 1027.1    1/ 3
CAMBRIDGE MD     1336   30 32              1028.2R
LEWISETTA VA     1342   29 33  350/ 14/ 18 1027.9R
RAPPAHANNOCK LGT 1342          340/ 23/ 26 1027.1R
STINGRAY PT      1400   33 34   10/ 14/ 17 1029.4    2/ 3
YORK RVR RNG VA  1342   33      10/ 13/ 16 1027.2R
YORKTOWN VA      1342   33 35  340/ 10/ 12 1026.7R
DOMINION TERM VA 1342   34     360/  8/ 11 1027.1R
KIPTOPEKE VA     1342      35  360/ 12/ 18   N/A
CAPE HENRY VA    1342   34     360/ 16/ 18   N/A
WILLOUBY STN VA  1342          360/ 12/ 16 1026.7R
S CRANEY ISL VA  1342   35      10/ 12/ 14 1026.6R
CAPE HENRY BUOY  1330      42                N/A     4/11   2/11
1ST LANDING BUOY 1400   34 37   20/ 17/ 21 1026.5    2/ 4
CAPE CHARLES BUO 1351      38                N/A     4/11   2/11
64NM E OF VA BCH 1350   45 54  350/ 16/ 17 1025.1R   6/11   5/11
DUCK PIER NC     1342   37 39  350/ 10/ 12 1024.8R
44100 DUCK FRF   1345      42                N/A     5/11   3/11
44056 DUCK FRF   1400      40                N/A     4/12   3/12
OREGON INLET NC  1342   38 41  330/  4/  6 1025.2R
HATTERAS NC      1342   40 47   20/  7/  8 1024.8R
DIAMOND SHLS NC  1350   50 71  360/ 14/ 17 1025.2R   6/11   5/11
CAPE LOOKOUT NC  1300           20/  6/  7 1025.2R
$$



USA.gov is the U.S. government's official web portal to all federal, state and local government web resources and services.